Location: Bottom School (historical)
(37.9078°N, 89.3593°W)
Time: 17:11:26
(UTC+00:00)

KKS-1 - Visible Passes

Search period start: 14 April 2024 00:00
Search period end: 24 April 2024 00:00
Orbit: 628 x 640 km, 98.1° (Epoch: 14 April)

Date Brightness Start Highest point End Pass type
(mag) Time Alt. Az. Time Alt. Az. Time Alt. Az.
19 Apr ? 05:33:11 10° N 05:33:18 11° N 05:33:18 11° N visible
20 Apr ? 05:55:11 10° N 05:55:19 11° N 05:55:19 11° N visible
22 Apr ? 05:01:45 10° NNE 05:01:52 11° NNE 05:01:52 11° NNE visible
23 Apr ? 05:23:24 10° N 05:23:52 13° N 05:23:52 13° N visible
